Find PICO-02A021

NORAD ID: 60538 Int'l Des: 2024-149 Owner: APOGEO Country: I operational
LEOCIRCULARRETROGRADESSO

現在のビュー

3D地球を読み込み中...

About PICO-02A021

PICO-02A021 (NORAD 60538) is a satellite launched Aug 16, 2024 by APOGEO of I. It operates in LEO, CIRCULAR, RETROGRADE, SSO orbit with a mass of 0.50 kg.

次回通過

Passes for default location (London). Set your location on the main map for personalized predictions.

高度履歴

Loading altitude history...

軌道要素

1 60538U 24149BY 26189.73169079 .00002640 00000-0 19831-3 0 9997
2 60538 97.6747 268.3815 0003201 317.3767 42.7209 15.03460922102972
Epoch: Jul 8, 2026 • Age: 133 hours

現在のステータス

高度 562.4 km
遠地点 / 近地点 N/A
速度 7.58 km/s
衛星直下点 32.41°N, 64.76°E
打ち上げ日 Aug 16, 2024
運用期間 1.9 years
タイプ other

技術仕様

分類 Payload
質量 0.50 kg
乾燥質量 0.50 kg
総質量 0.50 kg
長さ 0.03 m
直径 0.10 m
スパン 0.10 m
形状 Box
製造者 APOGEO
バスタイプ Cubesat 0.3U
フェーズステータス In Orbit
所有者/国 APOGEO/I

Most Searched